Starlink 32402

operational
NORAD ID: 61708 Int'l Des: 2024-196 Owner: SPXS Country: US Constellation: starlink
LEOCIRCULAR

About Starlink 32402

Description loading...

Live Position

Loading 3D Globe...

Upcoming Passes

Altitude History

Altitude vs Time

uPlot chart will show altitude changes over time

Two-Line Element Set

1 61708U 24196B 25304.41072450 .00001024 00000-0 46704-4 0 9993
2 61708 53.1624 341.8101 0001595 87.4193 272.6991 15.30190662 57365
Epoch: Oct 31, 2025 • Age: 20 hours

Current Status

Altitude 475.8 km
Velocity 7.63 km/s
Sub-Earth Point 2.23°N, 34.02°E
Launch Date Oct 30, 2024
Age 1 years
Type internet

Technical Details

Classification Payload
Mass 730.00 kg
Dry Mass 700.00 kg
Total Mass 730.00 kg
Length 0.30 m
Diameter 4.10 m
Span 29.00 m
Shape Box + pan
Manufacturer SPXS
Bus Type Starlink V2M
Phase Status In Orbit
Owner/State SPXS/US

Large Constellations

Loading constellations...